Time,TemperatureF,DewpointF,PressureIn,WindDirection,WindDirectionDegrees,WindSpeedMPH,WindSpeedGustMPH,Humidity,HourlyPrecipIn,Conditions,Clouds,dailyrainin,SoftwareType,DateUTC
2013-07-16 00:01:00,77.6,73.1,30.22,East,83,0.0,2.0,86,0.00,,,0.00,WUHU216DAVISVP2,2013-07-16 05:01:00,
2013-07-16 00:06:00,77.5,73.3,30.22,ESE,115,0.0,2.0,87,0.00,,,0.00,WUHU216DAVISVP2,2013-07-16 05:06:00,
2013-07-16 00:11:00,77.5,73.3,30.22,East,83,0.0,1.0,87,0.00,,,0.00,WUHU216DAVISVP2,2013-07-16 05:11:00,
2013-07-16 00:16:00,77.5,73.3,30.23,East,98,1.0,2.0,87,0.00,,,0.00,WUHU216DAVISVP2,2013-07-16 05:16:00,
2013-07-16 00:21:00,77.5,73.3,30.23,East,87,0.0,2.0,87,0.00,,,0.00,WUHU216DAVISVP2,2013-07-16 05:21:00,
2013-07-16 00:26:00,77.4,73.2,30.23,East,91,0.0,2.0,87,0.00,,,0.00,WUHU216DAVISVP2,2013-07-16 05:26:00,
2013-07-16 00:31:00,77.3,73.1,30.23,East,80,0.0,2.0,87,0.00,,,0.00,WUHU216DAVISVP2,2013-07-16 05:31:00,
2013-07-16 00:36:00,77.3,73.1,30.23,ENE,77,1.0,2.0,87,0.00,,,0.00,WUHU216DAVISVP2,2013-07-16 05:36:00,
2013-07-16 00:41:00,77.2,73.0,30.22,East,82,0.0,2.0,87,0.00,,,0.00,WUHU216DAVISVP2,2013-07-16 05:41:00,
2013-07-16 00:46:00,77.1,73.3,30.23,East,82,0.0,1.0,88,0.00,,,0.00,WUHU216DAVISVP2,2013-07-16 05:46:00,
2013-07-16 00:51:00,77.0,73.2,30.22,East,82,0.0,1.0,88,0.00,,,0.00,WUHU216DAVISVP2,2013-07-16 05:51:00,
2013-07-16 00:56:00,76.9,73.1,30.22,East,82,0.0,1.0,88,0.00,,,0.00,WUHU216DAVISVP2,2013-07-16 05:56:00,
2013-07-16 01:01:00,76.7,72.9,30.22,East,81,0.0,1.0,88,0.00,,,0.00,WUHU216DAVISVP2,2013-07-16 06:01:00,
2013-07-16 01:06:00,76.5,73.0,30.22,East,82,0.0,1.0,89,0.00,,,0.00,WUHU216DAVISVP2,2013-07-16 06:06:00,
2013-07-16 01:11:00,76.2,72.7,30.22,East,82,0.0,1.0,89,0.00,,,0.00,WUHU216DAVISVP2,2013-07-16 06:11:00,
2013-07-16 01:16:00,76.1,72.9,30.22,East,82,0.0,1.0,90,0.00,,,0.00,WUHU216DAVISVP2,2013-07-16 06:16:00,
2013-07-16 01:21:00,76.1,72.9,30.22,East,82,0.0,0.0,90,0.00,,,0.00,WUHU216DAVISVP2,2013-07-16 06:21:00,
2013-07-16 01:26:00,75.9,72.7,30.22,East,81,0.0,0.0,90,0.00,,,0.00,WUHU216DAVISVP2,2013-07-16 06:26:00,
2013-07-16 01:31:00,75.8,72.6,30.22,East,82,0.0,0.0,90,0.00,,,0.00,WUHU216DAVISVP2,2013-07-16 06:31:00,
2013-07-16 01:36:00,75.7,72.5,30.22,East,82,1.0,1.0,90,0.00,,,0.00,WUHU216DAVISVP2,2013-07-16 06:36:00,
2013-07-16 01:41:00,75.7,72.5,30.22,ENE,78,1.0,2.0,90,0.00,,,0.00,WUHU216DAVISVP2,2013-07-16 06:41:00,
2013-07-16 01:46:00,75.8,72.6,30.22,ENE,77,2.0,2.0,90,0.00,,,0.00,WUHU216DAVISVP2,2013-07-16 06:46:00,
2013-07-16 01:51:00,75.8,72.6,30.22,ENE,75,1.0,2.0,90,0.00,,,0.00,WUHU216DAVISVP2,2013-07-16 06:51:00,
2013-07-16 01:56:00,75.7,72.5,30.21,East,96,1.0,2.0,90,0.00,,,0.00,WUHU216DAVISVP2,2013-07-16 06:56:00,
2013-07-16 02:01:00,75.6,72.4,30.21,East,82,1.0,2.0,90,0.00,,,0.00,WUHU216DAVISVP2,2013-07-16 07:01:00,
2013-07-16 02:06:00,75.6,72.4,30.21,ENE,77,1.0,2.0,90,0.00,,,0.00,WUHU216DAVISVP2,2013-07-16 07:06:00,
2013-07-16 02:11:00,75.6,72.4,30.22,East,82,1.0,2.0,90,0.00,,,0.00,WUHU216DAVISVP2,2013-07-16 07:11:00,
2013-07-16 02:16:00,75.5,72.4,30.22,East,80,1.0,2.0,90,0.00,,,0.00,WUHU216DAVISVP2,2013-07-16 07:16:00,
2013-07-16 02:21:00,75.3,72.5,30.22,ENE,77,1.0,2.0,91,0.00,,,0.00,WUHU216DAVISVP2,2013-07-16 07:21:00,
2013-07-16 02:26:00,75.3,72.5,30.22,ENE,75,1.0,2.0,91,0.00,,,0.00,WUHU216DAVISVP2,2013-07-16 07:26:00,
2013-07-16 02:31:00,75.2,72.4,30.22,ENE,72,2.0,2.0,91,0.00,,,0.00,WUHU216DAVISVP2,2013-07-16 07:31:00,
2013-07-16 02:36:00,75.1,72.3,30.21,ESE,103,1.0,2.0,91,0.00,,,0.00,WUHU216DAVISVP2,2013-07-16 07:36:00,
2013-07-16 02:41:00,75.1,72.3,30.22,East,86,0.0,2.0,91,0.00,,,0.00,WUHU216DAVISVP2,2013-07-16 07:41:00,
2013-07-16 02:46:00,75.1,72.3,30.22,East,87,0.0,2.0,91,0.00,,,0.00,WUHU216DAVISVP2,2013-07-16 07:46:00,
2013-07-16 02:51:00,75.1,72.3,30.22,East,100,0.0,1.0,91,0.00,,,0.00,WUHU216DAVISVP2,2013-07-16 07:51:00,
2013-07-16 02:56:00,75.1,72.3,30.22,East,88,0.0,1.0,91,0.00,,,0.00,WUHU216DAVISVP2,2013-07-16 07:56:00,
2013-07-16 03:01:00,75.1,72.3,30.22,East,89,0.0,1.0,91,0.00,,,0.00,WUHU216DAVISVP2,2013-07-16 08:01:00,
2013-07-16 03:06:00,75.0,72.2,30.22,East,86,0.0,0.0,91,0.00,,,0.00,WUHU216DAVISVP2,2013-07-16 08:06:00,
2013-07-16 03:11:00,74.9,72.1,30.22,East,86,0.0,0.0,91,0.00,,,0.00,WUHU216DAVISVP2,2013-07-16 08:11:00,
2013-07-16 03:16:00,74.8,72.0,30.22,East,87,0.0,0.0,91,0.00,,,0.00,WUHU216DAVISVP2,2013-07-16 08:16:00,
2013-07-16 03:21:00,74.6,72.1,30.22,East,87,0.0,0.0,92,0.00,,,0.00,WUHU216DAVISVP2,2013-07-16 08:21:00,
2013-07-16 03:26:00,74.3,71.8,30.22,East,87,0.0,0.0,92,0.00,,,0.00,WUHU216DAVISVP2,2013-07-16 08:26:00,
2013-07-16 03:31:00,74.1,71.9,30.22,East,86,0.0,0.0,93,0.00,,,0.00,WUHU216DAVISVP2,2013-07-16 08:31:00,
2013-07-16 03:36:00,74.0,71.8,30.22,ENE,75,0.0,0.0,93,0.00,,,0.00,WUHU216DAVISVP2,2013-07-16 08:36:00,
2013-07-16 03:41:00,74.0,71.8,30.22,East,87,1.0,1.0,93,0.00,,,0.00,WUHU216DAVISVP2,2013-07-16 08:41:00,
2013-07-16 03:46:00,74.0,71.8,30.22,East,84,1.0,1.0,93,0.00,,,0.00,WUHU216DAVISVP2,2013-07-16 08:46:00,
2013-07-16 03:51:00,74.0,71.8,30.22,ENE,71,2.0,2.0,93,0.00,,,0.00,WUHU216DAVISVP2,2013-07-16 08:51:00,
2013-07-16 03:56:00,73.9,71.7,30.22,East,97,1.0,2.0,93,0.00,,,0.00,WUHU216DAVISVP2,2013-07-16 08:56:00,
2013-07-16 04:01:00,74.1,71.9,30.22,East,85,1.0,2.0,93,0.00,,,0.00,WUHU216DAVISVP2,2013-07-16 09:01:00,
2013-07-16 04:06:00,74.2,72.0,30.22,East,86,0.0,2.0,93,0.00,,,0.00,WUHU216DAVISVP2,2013-07-16 09:06:00,
2013-07-16 04:11:00,74.1,71.6,30.23,East,89,1.0,2.0,92,0.00,,,0.00,WUHU216DAVISVP2,2013-07-16 09:11:00,
2013-07-16 04:16:00,74.1,71.6,30.23,East,86,0.0,1.0,92,0.00,,,0.00,WUHU216DAVISVP2,2013-07-16 09:16:00,
2013-07-16 04:21:00,74.1,71.9,30.23,East,99,0.0,1.0,93,0.00,,,0.00,WUHU216DAVISVP2,2013-07-16 09:21:00,
2013-07-16 04:26:00,74.1,71.6,30.23,East,92,1.0,2.0,92,0.00,,,0.00,WUHU216DAVISVP2,2013-07-16 09:26:00,
2013-07-16 04:31:00,74.0,71.5,30.23,East,86,1.0,2.0,92,0.00,,,0.00,WUHU216DAVISVP2,2013-07-16 09:31:00,
2013-07-16 04:36:00,73.9,71.4,30.23,East,86,0.0,1.0,92,0.00,,,0.00,WUHU216DAVISVP2,2013-07-16 09:36:00,
2013-07-16 04:41:00,73.7,71.5,30.23,East,86,0.0,1.0,93,0.00,,,0.00,WUHU216DAVISVP2,2013-07-16 09:41:00,
2013-07-16 04:46:00,73.6,71.4,30.23,East,86,0.0,0.0,93,0.00,,,0.00,WUHU216DAVISVP2,2013-07-16 09:46:00,
2013-07-16 04:51:00,73.4,71.2,30.23,East,86,0.0,0.0,93,0.00,,,0.00,WUHU216DAVISVP2,2013-07-16 09:51:00,
2013-07-16 04:56:00,73.3,71.1,30.24,East,86,0.0,0.0,93,0.00,,,0.00,WUHU216DAVISVP2,2013-07-16 09:56:00,
2013-07-16 05:01:00,73.2,71.3,30.24,East,86,0.0,0.0,94,0.00,,,0.00,WUHU216DAVISVP2,2013-07-16 10:01:00,
2013-07-16 05:06:00,73.1,71.2,30.24,East,86,0.0,0.0,94,0.00,,,0.00,WUHU216DAVISVP2,2013-07-16 10:06:00,
2013-07-16 05:11:00,73.1,71.2,30.24,East,86,0.0,0.0,94,0.00,,,0.00,WUHU216DAVISVP2,2013-07-16 10:11:00,
2013-07-16 05:16:00,73.0,71.2,30.24,East,86,0.0,0.0,94,0.00,,,0.00,WUHU216DAVISVP2,2013-07-16 10:16:00,
2013-07-16 05:21:00,73.0,71.2,30.24,East,86,0.0,0.0,94,0.00,,,0.00,WUHU216DAVISVP2,2013-07-16 10:21:00,
2013-07-16 05:26:00,72.9,71.1,30.25,East,86,0.0,0.0,94,0.00,,,0.00,WUHU216DAVISVP2,2013-07-16 10:26:00,
2013-07-16 05:31:00,72.9,71.0,30.25,East,86,0.0,0.0,94,0.00,,,0.00,WUHU216DAVISVP2,2013-07-16 10:31:00,
2013-07-16 05:36:00,72.8,70.9,30.25,East,86,0.0,0.0,94,0.00,,,0.00,WUHU216DAVISVP2,2013-07-16 10:36:00,
2013-07-16 05:41:00,72.6,70.7,30.25,East,86,0.0,0.0,94,0.00,,,0.00,WUHU216DAVISVP2,2013-07-16 10:41:00,
2013-07-16 05:46:00,72.4,70.5,30.25,East,86,0.0,0.0,94,0.00,,,0.00,WUHU216DAVISVP2,2013-07-16 10:46:00,
2013-07-16 05:51:00,72.2,70.3,30.26,East,86,0.0,0.0,94,0.00,,,0.00,WUHU216DAVISVP2,2013-07-16 10:51:00,
2013-07-16 05:56:00,72.0,70.2,30.26,East,86,0.0,0.0,94,0.00,,,0.00,WUHU216DAVISVP2,2013-07-16 10:56:00,
2013-07-16 06:01:00,71.7,69.9,30.26,East,85,0.0,0.0,94,0.00,,,0.00,WUHU216DAVISVP2,2013-07-16 11:01:00,
2013-07-16 06:06:00,71.5,70.0,30.26,East,85,0.0,0.0,95,0.00,,,0.00,WUHU216DAVISVP2,2013-07-16 11:06:00,
2013-07-16 06:11:00,71.5,70.0,30.26,East,85,0.0,0.0,95,0.00,,,0.00,WUHU216DAVISVP2,2013-07-16 11:11:00,
2013-07-16 06:16:00,71.9,70.4,30.26,East,85,0.0,0.0,95,0.00,,,0.00,WUHU216DAVISVP2,2013-07-16 11:16:00,
2013-07-16 06:21:00,72.4,70.9,30.26,East,85,0.0,0.0,95,0.00,,,0.00,WUHU216DAVISVP2,2013-07-16 11:21:00,
2013-07-16 06:26:00,72.9,71.4,30.26,East,85,0.0,0.0,95,0.00,,,0.00,WUHU216DAVISVP2,2013-07-16 11:26:00,
2013-07-16 06:31:00,73.4,71.5,30.26,East,85,0.0,1.0,94,0.00,,,0.00,WUHU216DAVISVP2,2013-07-16 11:31:00,
2013-07-16 06:36:00,73.8,71.9,30.27,East,85,1.0,1.0,94,0.00,,,0.00,WUHU216DAVISVP2,2013-07-16 11:36:00,
2013-07-16 06:41:00,74.1,71.9,30.27,East,79,2.0,2.0,93,0.00,,,0.00,WUHU216DAVISVP2,2013-07-16 11:41:00,
2013-07-16 06:46:00,74.4,71.9,30.27,ENE,77,1.0,2.0,92,0.00,,,0.00,WUHU216DAVISVP2,2013-07-16 11:46:00,
2013-07-16 06:51:00,74.6,72.1,30.27,ENE,75,1.0,2.0,92,0.00,,,0.00,WUHU216DAVISVP2,2013-07-16 11:51:00,
2013-07-16 06:56:00,74.7,72.2,30.27,ENE,65,1.0,2.0,92,0.00,,,0.00,WUHU216DAVISVP2,2013-07-16 11:56:00,
2013-07-16 07:01:00,75.1,72.6,30.28,ENE,67,1.0,2.0,92,0.00,,,0.00,WUHU216DAVISVP2,2013-07-16 12:01:00,
2013-07-16 07:06:00,75.6,72.8,30.28,East,81,1.0,3.0,91,0.00,,,0.00,WUHU216DAVISVP2,2013-07-16 12:06:00,
2013-07-16 07:11:00,76.0,72.8,30.28,ENE,70,2.0,3.0,90,0.00,,,0.00,WUHU216DAVISVP2,2013-07-16 12:11:00,
2013-07-16 07:16:00,76.4,73.2,30.28,ENE,78,2.0,3.0,90,0.00,,,0.00,WUHU216DAVISVP2,2013-07-16 12:16:00,
2013-07-16 07:21:00,77.0,73.5,30.28,ENE,76,2.0,3.0,89,0.00,,,0.00,WUHU216DAVISVP2,2013-07-16 12:21:00,
2013-07-16 07:26:00,77.4,73.9,30.28,ENE,61,2.0,3.0,89,0.00,,,0.00,WUHU216DAVISVP2,2013-07-16 12:26:00,
2013-07-16 07:31:00,78.0,73.8,30.28,ENE,71,3.0,3.0,87,0.00,,,0.00,WUHU216DAVISVP2,2013-07-16 12:31:00,
2013-07-16 07:36:00,78.4,73.9,30.28,NE,56,4.0,5.0,86,0.00,,,0.00,WUHU216DAVISVP2,2013-07-16 12:36:00,
2013-07-16 07:41:00,78.7,73.9,30.28,ENE,65,3.0,6.0,85,0.00,,,0.00,WUHU216DAVISVP2,2013-07-16 12:41:00,
2013-07-16 07:46:00,79.0,74.2,30.28,ENE,75,3.0,6.0,85,0.00,,,0.00,WUHU216DAVISVP2,2013-07-16 12:46:00,
2013-07-16 07:51:00,79.3,74.1,30.28,ENE,68,5.0,6.0,84,0.00,,,0.00,WUHU216DAVISVP2,2013-07-16 12:51:00,
2013-07-16 07:56:00,79.1,73.9,30.29,ENE,68,3.0,6.0,84,0.00,,,0.00,WUHU216DAVISVP2,2013-07-16 12:56:00,
2013-07-16 08:01:00,79.5,74.3,30.29,SE,136,1.0,6.0,84,0.00,,,0.00,WUHU216DAVISVP2,2013-07-16 13:01:00,
2013-07-16 08:06:00,80.4,74.8,30.29,ENE,70,3.0,5.0,83,0.00,,,0.00,WUHU216DAVISVP2,2013-07-16 13:06:00,
2013-07-16 08:11:00,80.1,73.8,30.29,ENE,58,3.0,5.0,81,0.00,,,0.00,WUHU216DAVISVP2,2013-07-16 13:11:00,
2013-07-16 08:16:00,80.1,74.2,30.29,East,80,4.0,5.0,82,0.00,,,0.00,WUHU216DAVISVP2,2013-07-16 13:16:00,
2013-07-16 08:21:00,80.6,74.3,30.29,ENE,58,4.0,5.0,81,0.00,,,0.00,WUHU216DAVISVP2,2013-07-16 13:21:00,
2013-07-16 08:26:00,80.8,74.5,30.29,NE,55,2.0,4.0,81,0.00,,,0.00,WUHU216DAVISVP2,2013-07-16 13:26:00,
2013-07-16 08:31:00,81.0,74.0,30.29,ENE,76,2.0,4.0,79,0.00,,,0.00,WUHU216DAVISVP2,2013-07-16 13:31:00,
2013-07-16 08:36:00,81.3,75.0,30.29,ENE,77,4.0,4.0,81,0.00,,,0.00,WUHU216DAVISVP2,2013-07-16 13:36:00,
2013-07-16 08:41:00,81.9,75.1,30.29,NW,307,0.0,5.0,80,0.00,,,0.00,WUHU216DAVISVP2,2013-07-16 13:41:00,
2013-07-16 08:46:00,83.1,74.5,30.29,East,82,0.0,5.0,75,0.00,,,0.00,WUHU216DAVISVP2,2013-07-16 13:46:00,
2013-07-16 08:51:00,83.9,76.1,30.29,ENE,58,4.0,4.0,77,0.00,,,0.00,WUHU216DAVISVP2,2013-07-16 13:51:00,
2013-07-16 08:56:00,83.4,74.4,30.29,ENE,66,4.0,5.0,74,0.00,,,0.00,WUHU216DAVISVP2,2013-07-16 13:56:00,
2013-07-16 09:01:00,83.1,74.9,30.29,ENE,73,3.0,6.0,76,0.00,,,0.00,WUHU216DAVISVP2,2013-07-16 14:01:00,
2013-07-16 09:06:00,83.8,75.0,30.29,ESE,109,0.0,6.0,75,0.00,,,0.00,WUHU216DAVISVP2,2013-07-16 14:06:00,
2013-07-16 09:11:00,84.3,75.3,30.29,ENE,71,3.0,6.0,74,0.00,,,0.00,WUHU216DAVISVP2,2013-07-16 14:11:00,
2013-07-16 09:16:00,84.9,75.1,30.29,SE,128,0.0,6.0,72,0.00,,,0.00,WUHU216DAVISVP2,2013-07-16 14:16:00,
2013-07-16 09:21:00,86.1,75.4,30.29,East,89,2.0,4.0,70,0.00,,,0.00,WUHU216DAVISVP2,2013-07-16 14:21:00,
2013-07-16 09:26:00,85.7,75.0,30.29,East,96,0.0,4.0,70,0.00,,,0.00,WUHU216DAVISVP2,2013-07-16 14:26:00,
2013-07-16 09:31:00,85.9,74.5,30.29,East,79,0.0,4.0,69,0.00,,,0.00,WUHU216DAVISVP2,2013-07-16 14:31:00,
2013-07-16 09:36:00,86.0,74.0,30.29,SW,215,1.0,3.0,67,0.00,,,0.00,WUHU216DAVISVP2,2013-07-16 14:36:00,
2013-07-16 09:41:00,86.1,74.1,30.29,ENE,73,3.0,3.0,67,0.00,,,0.00,WUHU216DAVISVP2,2013-07-16 14:41:00,
2013-07-16 09:46:00,86.2,74.7,30.29,SSW,206,1.0,3.0,68,0.00,,,0.00,WUHU216DAVISVP2,2013-07-16 14:46:00,
2013-07-16 09:51:00,86.2,74.7,30.29,SW,224,1.0,3.0,68,0.00,,,0.00,WUHU216DAVISVP2,2013-07-16 14:51:00,
2013-07-16 09:56:00,86.8,75.2,30.29,SW,214,0.0,3.0,68,0.00,,,0.00,WUHU216DAVISVP2,2013-07-16 14:56:00,
2013-07-16 10:01:00,87.7,76.1,30.29,East,84,0.0,3.0,68,0.00,,,0.00,WUHU216DAVISVP2,2013-07-16 15:01:00,
2013-07-16 10:06:00,88.1,76.0,30.29,ESE,111,1.0,3.0,67,0.00,,,0.00,WUHU216DAVISVP2,2013-07-16 15:06:00,
2013-07-16 10:11:00,88.0,75.5,30.29,SW,226,1.0,3.0,66,0.00,,,0.00,WUHU216DAVISVP2,2013-07-16 15:11:00,
2013-07-16 10:16:00,87.6,73.7,30.29,South,191,3.0,6.0,63,0.00,,,0.00,WUHU216DAVISVP2,2013-07-16 15:16:00,
2013-07-16 10:21:00,87.4,74.2,30.28,SW,233,3.0,6.0,65,0.00,,,0.00,WUHU216DAVISVP2,2013-07-16 15:21:00,
2013-07-16 10:26:00,86.8,74.4,30.29,WSW,238,0.0,4.0,66,0.00,,,0.00,WUHU216DAVISVP2,2013-07-16 15:26:00,
2013-07-16 10:31:00,86.7,73.8,30.29,SW,233,4.0,6.0,65,0.00,,,0.00,WUHU216DAVISVP2,2013-07-16 15:31:00,
2013-07-16 10:36:00,87.0,74.1,30.29,SSW,212,3.0,6.0,65,0.00,,,0.00,WUHU216DAVISVP2,2013-07-16 15:36:00,
2013-07-16 10:41:00,87.3,74.4,30.29,SSW,206,2.0,4.0,65,0.00,,,0.00,WUHU216DAVISVP2,2013-07-16 15:41:00,
2013-07-16 10:46:00,87.7,74.8,30.29,South,175,2.0,4.0,65,0.00,,,0.00,WUHU216DAVISVP2,2013-07-16 15:46:00,
2013-07-16 10:51:00,87.8,74.1,30.29,SW,233,0.0,4.0,64,0.00,,,0.00,WUHU216DAVISVP2,2013-07-16 15:51:00,
2013-07-16 10:56:00,87.7,73.4,30.29,South,181,1.0,3.0,62,0.00,,,0.00,WUHU216DAVISVP2,2013-07-16 15:56:00,
2013-07-16 11:01:00,87.6,74.2,30.29,SW,222,6.0,6.0,64,0.00,,,0.00,WUHU216DAVISVP2,2013-07-16 16:01:00,
2013-07-16 11:06:00,87.2,73.4,30.29,SSW,199,2.0,6.0,63,0.00,,,0.00,WUHU216DAVISVP2,2013-07-16 16:06:00,
2013-07-16 11:11:00,87.5,73.2,30.29,SSW,201,1.0,5.0,62,0.00,,,0.00,WUHU216DAVISVP2,2013-07-16 16:11:00,
2013-07-16 11:16:00,88.6,74.2,30.29,ENE,72,2.0,4.0,62,0.00,,,0.00,WUHU216DAVISVP2,2013-07-16 16:16:00,
2013-07-16 11:21:00,88.7,74.8,30.29,SW,230,4.0,5.0,63,0.00,,,0.00,WUHU216DAVISVP2,2013-07-16 16:21:00,
2013-07-16 11:26:00,88.1,72.5,30.29,SSW,201,3.0,5.0,60,0.00,,,0.00,WUHU216DAVISVP2,2013-07-16 16:26:00,
2013-07-16 11:31:00,88.5,72.3,30.29,SW,219,3.0,6.0,59,0.00,,,0.00,WUHU216DAVISVP2,2013-07-16 16:31:00,
2013-07-16 11:36:00,88.7,72.8,30.29,ENE,63,2.0,6.0,59,0.00,,,0.00,WUHU216DAVISVP2,2013-07-16 16:36:00,
2013-07-16 11:41:00,87.9,73.1,30.29,SW,217,0.0,5.0,61,0.00,,,0.00,WUHU216DAVISVP2,2013-07-16 16:41:00,
2013-07-16 11:46:00,88.1,74.2,30.29,SW,217,0.0,5.0,63,0.00,,,0.00,WUHU216DAVISVP2,2013-07-16 16:46:00,
2013-07-16 11:51:00,88.9,73.5,30.29,East,91,1.0,4.0,60,0.00,,,0.00,WUHU216DAVISVP2,2013-07-16 16:51:00,
2013-07-16 11:56:00,88.9,73.0,30.28,ENE,70,1.0,5.0,59,0.00,,,0.00,WUHU216DAVISVP2,2013-07-16 16:56:00,
2013-07-16 12:01:00,89.0,74.6,30.28,SW,221,4.0,5.0,62,0.00,,,0.00,WUHU216DAVISVP2,2013-07-16 17:01:00,
2013-07-16 12:06:00,88.9,72.5,30.28,SSW,199,2.0,5.0,58,0.00,,,0.00,WUHU216DAVISVP2,2013-07-16 17:06:00,
2013-07-16 12:11:00,88.9,72.0,30.28,WSW,253,0.0,5.0,57,0.00,,,0.00,WUHU216DAVISVP2,2013-07-16 17:11:00,
2013-07-16 12:16:00,89.4,73.7,30.28,SW,219,5.0,7.0,60,0.00,,,0.00,WUHU216DAVISVP2,2013-07-16 17:16:00,
2013-07-16 12:21:00,89.3,73.4,30.28,SW,221,4.0,7.0,59,0.00,,,0.00,WUHU216DAVISVP2,2013-07-16 17:21:00,
2013-07-16 12:26:00,89.3,71.8,30.28,SW,214,2.0,6.0,56,0.00,,,0.00,WUHU216DAVISVP2,2013-07-16 17:26:00,
2013-07-16 12:31:00,89.5,71.5,30.28,WSW,248,0.0,6.0,55,0.00,,,0.00,WUHU216DAVISVP2,2013-07-16 17:31:00,
2013-07-16 12:36:00,89.9,71.8,30.28,SW,231,0.0,4.0,55,0.00,,,0.00,WUHU216DAVISVP2,2013-07-16 17:36:00,
2013-07-16 12:41:00,90.1,73.1,30.28,SSW,208,4.0,7.0,57,0.00,,,0.00,WUHU216DAVISVP2,2013-07-16 17:41:00,
2013-07-16 12:46:00,90.0,73.0,30.27,ESE,112,1.0,7.0,57,0.00,,,0.00,WUHU216DAVISVP2,2013-07-16 17:46:00,
2013-07-16 12:51:00,90.5,72.4,30.27,NE,55,1.0,4.0,55,0.00,,,0.00,WUHU216DAVISVP2,2013-07-16 17:51:00,
2013-07-16 12:56:00,90.5,73.5,30.27,NNW,341,1.0,4.0,57,0.00,,,0.00,WUHU216DAVISVP2,2013-07-16 17:56:00,
2013-07-16 13:01:00,91.0,71.5,30.27,ESE,121,1.0,4.0,53,0.00,,,0.00,WUHU216DAVISVP2,2013-07-16 18:01:00,
2013-07-16 13:06:00,91.0,71.7,30.27,NE,41,0.0,3.0,53,0.00,,,0.00,WUHU216DAVISVP2,2013-07-16 18:06:00,
2013-07-16 13:11:00,91.8,74.7,30.27,East,87,0.0,3.0,57,0.00,,,0.00,WUHU216DAVISVP2,2013-07-16 18:11:00,
2013-07-16 13:16:00,92.0,73.8,30.27,ENE,75,4.0,4.0,55,0.00,,,0.00,WUHU216DAVISVP2,2013-07-16 18:16:00,
2013-07-16 13:21:00,91.7,72.9,30.27,East,94,0.0,5.0,54,0.00,,,0.00,WUHU216DAVISVP2,2013-07-16 18:21:00,
2013-07-16 13:26:00,90.7,70.9,30.27,ENE,75,3.0,7.0,52,0.00,,,0.00,WUHU216DAVISVP2,2013-07-16 18:26:00,
2013-07-16 13:31:00,89.5,70.9,30.27,ENE,67,1.0,7.0,54,0.00,,,0.00,WUHU216DAVISVP2,2013-07-16 18:31:00,
2013-07-16 13:36:00,89.7,72.2,30.27,East,86,1.0,4.0,56,0.00,,,0.00,WUHU216DAVISVP2,2013-07-16 18:36:00,
2013-07-16 13:41:00,90.4,72.8,30.26,East,95,1.0,4.0,56,0.00,,,0.00,WUHU216DAVISVP2,2013-07-16 18:41:00,
2013-07-16 13:46:00,91.0,70.9,30.26,SW,236,0.0,3.0,52,0.00,,,0.00,WUHU216DAVISVP2,2013-07-16 18:46:00,
2013-07-16 13:51:00,91.8,72.2,30.26,SE,128,0.0,3.0,53,0.00,,,0.00,WUHU216DAVISVP2,2013-07-16 18:51:00,
2013-07-16 13:56:00,92.5,71.2,30.26,East,90,1.0,2.0,50,0.00,,,0.00,WUHU216DAVISVP2,2013-07-16 18:56:00,
2013-07-16 14:01:00,92.5,71.3,30.26,SE,132,0.0,3.0,50,0.00,,,0.00,WUHU216DAVISVP2,2013-07-16 19:01:00,
2013-07-16 14:06:00,93.0,73.0,30.26,NE,53,0.0,3.0,52,0.00,,,0.00,WUHU216DAVISVP2,2013-07-16 19:06:00,
2013-07-16 14:11:00,92.7,71.5,30.26,SE,127,0.0,3.0,50,0.00,,,0.00,WUHU216DAVISVP2,2013-07-16 19:11:00,
2013-07-16 14:16:00,92.2,71.7,30.26,NNE,28,1.0,3.0,51,0.00,,,0.00,WUHU216DAVISVP2,2013-07-16 19:16:00,
2013-07-16 14:21:00,91.8,71.9,30.26,ENE,70,3.0,8.0,52,0.00,,,0.00,WUHU216DAVISVP2,2013-07-16 19:21:00,
2013-07-16 14:26:00,90.6,72.5,30.25,ENE,68,3.0,8.0,55,0.00,,,0.00,WUHU216DAVISVP2,2013-07-16 19:26:00,
2013-07-16 14:31:00,90.1,73.6,30.25,ENE,66,5.0,7.0,58,0.00,,,0.00,WUHU216DAVISVP2,2013-07-16 19:31:00,
2013-07-16 14:36:00,90.1,72.6,30.25,NE,43,3.0,6.0,56,0.00,,,0.00,WUHU216DAVISVP2,2013-07-16 19:36:00,
2013-07-16 14:41:00,90.8,71.9,30.25,ENE,72,0.0,5.0,54,0.00,,,0.00,WUHU216DAVISVP2,2013-07-16 19:41:00,
2013-07-16 14:46:00,91.7,73.2,30.25,ENE,57,0.0,3.0,55,0.00,,,0.00,WUHU216DAVISVP2,2013-07-16 19:46:00,
2013-07-16 14:51:00,91.2,71.9,30.25,NE,53,0.0,4.0,53,0.00,,,0.00,WUHU216DAVISVP2,2013-07-16 19:51:00,
2013-07-16 14:56:00,91.6,72.3,30.25,ENE,57,3.0,7.0,53,0.00,,,0.00,WUHU216DAVISVP2,2013-07-16 19:56:00,
2013-07-16 15:01:00,91.1,70.7,30.25,ENE,74,3.0,7.0,51,0.00,,,0.00,WUHU216DAVISVP2,2013-07-16 20:01:00,
2013-07-16 15:06:00,90.9,71.1,30.24,ENE,69,6.0,8.0,52,0.00,,,0.00,WUHU216DAVISVP2,2013-07-16 20:06:00,
2013-07-16 15:11:00,91.1,71.2,30.24,ENE,68,6.0,8.0,52,0.00,,,0.00,WUHU216DAVISVP2,2013-07-16 20:11:00,
2013-07-16 15:16:00,91.2,70.7,30.24,ENE,60,0.0,10.0,51,0.00,,,0.00,WUHU216DAVISVP2,2013-07-16 20:16:00,
2013-07-16 15:21:00,92.2,71.7,30.24,ESE,103,2.0,10.0,51,0.00,,,0.00,WUHU216DAVISVP2,2013-07-16 20:21:00,
2013-07-16 15:26:00,92.0,70.9,30.24,ESE,103,0.0,4.0,50,0.00,,,0.00,WUHU216DAVISVP2,2013-07-16 20:26:00,
2013-07-16 15:31:00,92.2,72.8,30.24,South,184,2.0,4.0,53,0.00,,,0.00,WUHU216DAVISVP2,2013-07-16 20:31:00,
2013-07-16 15:36:00,93.0,73.3,30.24,NE,48,2.0,3.0,53,0.00,,,0.00,WUHU216DAVISVP2,2013-07-16 20:36:00,
2013-07-16 15:41:00,92.7,70.7,30.24,NE,51,2.0,9.0,49,0.00,,,0.00,WUHU216DAVISVP2,2013-07-16 20:41:00,
2013-07-16 15:46:00,92.3,71.2,30.24,East,94,3.0,9.0,50,0.00,,,0.00,WUHU216DAVISVP2,2013-07-16 20:46:00,
2013-07-16 15:51:00,92.3,71.8,30.24,ESE,122,3.0,5.0,51,0.00,,,0.00,WUHU216DAVISVP2,2013-07-16 20:51:00,
2013-07-16 15:56:00,92.3,72.4,30.24,ESE,123,1.0,5.0,52,0.00,,,0.00,WUHU216DAVISVP2,2013-07-16 20:56:00,
2013-07-16 16:01:00,92.6,71.4,30.24,ESE,123,1.0,3.0,50,0.00,,,0.00,WUHU216DAVISVP2,2013-07-16 21:01:00,
2013-07-16 16:06:00,92.8,71.6,30.24,ENE,77,2.0,4.0,50,0.00,,,0.00,WUHU216DAVISVP2,2013-07-16 21:06:00,
2013-07-16 16:11:00,92.7,70.9,30.23,ESE,112,0.0,4.0,49,0.00,,,0.00,WUHU216DAVISVP2,2013-07-16 21:11:00,
2013-07-16 16:16:00,92.9,71.7,30.23,ENE,65,6.0,6.0,50,0.00,,,0.00,WUHU216DAVISVP2,2013-07-16 21:16:00,
2013-07-16 16:21:00,92.3,72.7,30.23,SE,132,2.0,8.0,53,0.00,,,0.00,WUHU216DAVISVP2,2013-07-16 21:21:00,
2013-07-16 16:26:00,92.2,72.0,30.23,East,97,0.0,8.0,52,0.00,,,0.00,WUHU216DAVISVP2,2013-07-16 21:26:00,
2013-07-16 16:31:00,92.4,72.5,30.23,ESE,112,1.0,3.0,52,0.00,,,0.00,WUHU216DAVISVP2,2013-07-16 21:31:00,
2013-07-16 16:36:00,92.8,72.2,30.23,NE,54,0.0,3.0,51,0.00,,,0.00,WUHU216DAVISVP2,2013-07-16 21:36:00,
2013-07-16 16:41:00,93.1,71.9,30.24,SE,128,1.0,5.0,50,0.00,,,0.00,WUHU216DAVISVP2,2013-07-16 21:41:00,
2013-07-16 16:46:00,93.5,74.1,30.23,East,98,0.0,5.0,53,0.00,,,0.00,WUHU216DAVISVP2,2013-07-16 21:46:00,
2013-07-16 16:51:00,93.0,72.4,30.23,ENE,63,3.0,6.0,51,0.00,,,0.00,WUHU216DAVISVP2,2013-07-16 21:51:00,
2013-07-16 16:56:00,92.6,72.6,30.23,East,84,2.0,6.0,52,0.00,,,0.00,WUHU216DAVISVP2,2013-07-16 21:56:00,
2013-07-16 17:01:00,92.7,71.9,30.23,SE,124,0.0,4.0,51,0.00,,,0.00,WUHU216DAVISVP2,2013-07-16 22:01:00,
2013-07-16 17:06:00,92.9,72.7,30.23,SE,127,2.0,3.0,52,0.00,,,0.00,WUHU216DAVISVP2,2013-07-16 22:06:00,
2013-07-16 17:11:00,92.1,70.2,30.23,SE,131,0.0,4.0,49,0.00,,,0.00,WUHU216DAVISVP2,2013-07-16 22:11:00,
2013-07-16 17:16:00,91.4,71.5,30.23,East,79,3.0,4.0,52,0.00,,,0.00,WUHU216DAVISVP2,2013-07-16 22:16:00,
2013-07-16 17:21:00,91.5,71.6,30.23,SE,127,1.0,4.0,52,0.00,,,0.00,WUHU216DAVISVP2,2013-07-16 22:21:00,
2013-07-16 17:26:00,91.6,72.3,30.23,SE,124,1.0,3.0,53,0.00,,,0.00,WUHU216DAVISVP2,2013-07-16 22:26:00,
2013-07-16 17:31:00,91.6,72.0,30.23,ENE,70,1.0,4.0,53,0.00,,,0.00,WUHU216DAVISVP2,2013-07-16 22:31:00,
2013-07-16 17:36:00,91.9,72.6,30.23,SE,124,0.0,4.0,53,0.00,,,0.00,WUHU216DAVISVP2,2013-07-16 22:36:00,
2013-07-16 17:41:00,92.5,74.3,30.22,ESE,112,0.0,2.0,55,0.00,,,0.00,WUHU216DAVISVP2,2013-07-16 22:41:00,
2013-07-16 17:46:00,93.0,73.3,30.22,East,82,2.0,3.0,53,0.00,,,0.00,WUHU216DAVISVP2,2013-07-16 22:46:00,
2013-07-16 17:51:00,93.3,72.7,30.22,ESE,120,3.0,4.0,51,0.00,,,0.00,WUHU216DAVISVP2,2013-07-16 22:51:00,
2013-07-16 17:56:00,92.5,73.1,30.22,SE,137,0.0,4.0,53,0.00,,,0.00,WUHU216DAVISVP2,2013-07-16 22:56:00,
2013-07-16 18:01:00,92.3,72.7,30.22,ESE,111,1.0,5.0,53,0.00,,,0.00,WUHU216DAVISVP2,2013-07-16 23:01:00,
2013-07-16 18:06:00,91.8,73.6,30.22,ESE,105,3.0,5.0,55,0.00,,,0.00,WUHU216DAVISVP2,2013-07-16 23:06:00,
2013-07-16 18:11:00,91.8,73.6,30.22,ESE,121,0.0,4.0,55,0.00,,,0.00,WUHU216DAVISVP2,2013-07-16 23:11:00,
2013-07-16 18:16:00,92.0,73.8,30.22,ESE,108,1.0,4.0,55,0.00,,,0.00,WUHU216DAVISVP2,2013-07-16 23:16:00,
2013-07-16 18:21:00,92.0,73.2,30.22,ESE,105,0.0,4.0,54,0.00,,,0.00,WUHU216DAVISVP2,2013-07-16 23:21:00,
2013-07-16 18:26:00,92.0,73.5,30.22,ESE,108,1.0,2.0,55,0.00,,,0.00,WUHU216DAVISVP2,2013-07-16 23:26:00,
2013-07-16 18:31:00,91.8,73.6,30.22,ESE,122,1.0,2.0,55,0.00,,,0.00,WUHU216DAVISVP2,2013-07-16 23:31:00,
2013-07-16 18:36:00,91.8,73.6,30.22,ENE,74,1.0,4.0,55,0.00,,,0.00,WUHU216DAVISVP2,2013-07-16 23:36:00,
2013-07-16 18:41:00,91.8,74.1,30.22,East,79,1.0,4.0,56,0.00,,,0.00,WUHU216DAVISVP2,2013-07-16 23:41:00,
2013-07-16 18:46:00,91.6,72.9,30.22,ENE,72,0.0,2.0,54,0.00,,,0.00,WUHU216DAVISVP2,2013-07-16 23:46:00,
2013-07-16 18:51:00,91.3,73.1,30.23,East,87,0.0,2.0,55,0.00,,,0.00,WUHU216DAVISVP2,2013-07-16 23:51:00,
2013-07-16 18:56:00,91.8,73.6,30.23,East,84,1.0,2.0,55,0.00,,,0.00,WUHU216DAVISVP2,2013-07-16 23:56:00,
2013-07-16 19:01:00,91.6,74.0,30.23,ENE,73,0.0,2.0,56,0.00,,,0.00,WUHU216DAVISVP2,2013-07-17 00:01:00,
2013-07-16 19:06:00,91.4,73.5,30.23,East,79,0.0,2.0,56,0.00,,,0.00,WUHU216DAVISVP2,2013-07-17 00:06:00,
2013-07-16 19:11:00,91.6,74.0,30.23,ENE,75,0.0,2.0,56,0.00,,,0.00,WUHU216DAVISVP2,2013-07-17 00:11:00,
2013-07-16 19:16:00,91.3,74.7,30.23,ENE,74,0.0,2.0,58,0.00,,,0.00,WUHU216DAVISVP2,2013-07-17 00:16:00,
2013-07-16 19:21:00,90.7,74.2,30.23,East,82,0.0,1.0,58,0.00,,,0.00,WUHU216DAVISVP2,2013-07-17 00:21:00,
2013-07-16 19:26:00,90.6,74.3,30.23,East,82,0.0,0.0,59,0.00,,,0.00,WUHU216DAVISVP2,2013-07-17 00:26:00,
2013-07-16 19:31:00,90.2,73.7,30.23,ESE,105,0.0,0.0,58,0.00,,,0.00,WUHU216DAVISVP2,2013-07-17 00:31:00,
2013-07-16 19:36:00,90.0,74.0,30.23,East,79,0.0,0.0,59,0.00,,,0.00,WUHU216DAVISVP2,2013-07-17 00:36:00,
2013-07-16 19:41:00,89.7,74.3,30.23,SE,130,0.0,0.0,60,0.00,,,0.00,WUHU216DAVISVP2,2013-07-17 00:41:00,
2013-07-16 19:46:00,89.5,74.6,30.23,East,90,0.0,0.0,61,0.00,,,0.00,WUHU216DAVISVP2,2013-07-17 00:46:00,
2013-07-16 19:51:00,89.2,74.8,30.23,East,90,0.0,0.0,62,0.00,,,0.00,WUHU216DAVISVP2,2013-07-17 00:51:00,
2013-07-16 19:56:00,88.6,74.7,30.23,East,91,0.0,0.0,63,0.00,,,0.00,WUHU216DAVISVP2,2013-07-17 00:56:00,
2013-07-16 20:01:00,87.9,74.2,30.23,East,91,0.0,0.0,64,0.00,,,0.00,WUHU216DAVISVP2,2013-07-17 01:01:00,
2013-07-16 20:06:00,87.3,74.4,30.23,East,91,0.0,0.0,65,0.00,,,0.00,WUHU216DAVISVP2,2013-07-17 01:06:00,
2013-07-16 20:11:00,86.6,74.2,30.23,East,91,0.0,0.0,66,0.00,,,0.00,WUHU216DAVISVP2,2013-07-17 01:11:00,
2013-07-16 20:16:00,86.1,74.6,30.23,East,91,0.0,0.0,68,0.00,,,0.00,WUHU216DAVISVP2,2013-07-17 01:16:00,
2013-07-16 20:21:00,85.6,73.8,30.23,East,91,0.0,0.0,68,0.00,,,0.00,WUHU216DAVISVP2,2013-07-17 01:21:00,
2013-07-16 20:26:00,85.2,74.1,30.23,East,91,0.0,0.0,69,0.00,,,0.00,WUHU216DAVISVP2,2013-07-17 01:26:00,
2013-07-16 20:31:00,84.7,74.1,30.23,East,91,0.0,0.0,70,0.00,,,0.00,WUHU216DAVISVP2,2013-07-17 01:31:00,
2013-07-16 20:36:00,84.3,74.5,30.23,East,91,0.0,0.0,72,0.00,,,0.00,WUHU216DAVISVP2,2013-07-17 01:36:00,
2013-07-16 20:41:00,84.0,74.4,30.23,East,91,0.0,0.0,73,0.00,,,0.00,WUHU216DAVISVP2,2013-07-17 01:41:00,
2013-07-16 20:46:00,83.6,74.2,30.23,East,91,0.0,0.0,73,0.00,,,0.00,WUHU216DAVISVP2,2013-07-17 01:46:00,
2013-07-16 20:51:00,83.2,74.3,30.24,East,91,0.0,0.0,74,0.00,,,0.00,WUHU216DAVISVP2,2013-07-17 01:51:00,
2013-07-16 20:56:00,83.2,74.6,30.24,East,91,0.0,0.0,75,0.00,,,0.00,WUHU216DAVISVP2,2013-07-17 01:56:00,
2013-07-16 21:01:00,83.2,74.3,30.24,East,91,0.0,0.0,74,0.00,,,0.00,WUHU216DAVISVP2,2013-07-17 02:01:00,
2013-07-16 21:06:00,83.0,74.4,30.24,East,91,0.0,0.0,75,0.00,,,0.00,WUHU216DAVISVP2,2013-07-17 02:06:00,
2013-07-16 21:11:00,82.7,74.0,30.24,East,91,0.0,0.0,75,0.00,,,0.00,WUHU216DAVISVP2,2013-07-17 02:11:00,
2013-07-16 21:16:00,82.2,74.1,30.25,East,91,0.0,0.0,76,0.00,,,0.00,WUHU216DAVISVP2,2013-07-17 02:16:00,
2013-07-16 21:21:00,81.9,73.8,30.25,East,91,0.0,0.0,76,0.00,,,0.00,WUHU216DAVISVP2,2013-07-17 02:21:00,
2013-07-16 21:26:00,81.5,73.8,30.25,East,91,0.0,0.0,77,0.00,,,0.00,WUHU216DAVISVP2,2013-07-17 02:26:00,
2013-07-16 21:31:00,81.3,73.6,30.25,East,91,0.0,0.0,77,0.00,,,0.00,WUHU216DAVISVP2,2013-07-17 02:31:00,
2013-07-16 21:36:00,81.3,74.3,30.25,East,88,0.0,0.0,79,0.00,,,0.00,WUHU216DAVISVP2,2013-07-17 02:36:00,
2013-07-16 21:41:00,81.2,74.9,30.25,NNE,25,0.0,0.0,81,0.00,,,0.00,WUHU216DAVISVP2,2013-07-17 02:41:00,
2013-07-16 21:46:00,80.8,75.6,30.25,North,2,0.0,0.0,84,0.00,,,0.00,WUHU216DAVISVP2,2013-07-17 02:46:00,
2013-07-16 21:51:00,80.6,75.0,30.25,North,3,0.0,0.0,83,0.00,,,0.00,WUHU216DAVISVP2,2013-07-17 02:51:00,
2013-07-16 21:56:00,80.4,74.8,30.25,North,3,0.0,0.0,83,0.00,,,0.00,WUHU216DAVISVP2,2013-07-17 02:56:00,
2013-07-16 22:01:00,80.1,74.2,30.26,North,3,0.0,0.0,82,0.00,,,0.00,WUHU216DAVISVP2,2013-07-17 03:01:00,
2013-07-16 22:06:00,79.8,73.5,30.26,North,3,0.0,0.0,81,0.00,,,0.00,WUHU216DAVISVP2,2013-07-17 03:06:00,
2013-07-16 22:11:00,79.6,74.0,30.26,North,3,0.0,0.0,83,0.00,,,0.00,WUHU216DAVISVP2,2013-07-17 03:11:00,
2013-07-16 22:16:00,79.6,74.4,30.26,North,3,0.0,0.0,84,0.00,,,0.00,WUHU216DAVISVP2,2013-07-17 03:16:00,
2013-07-16 22:21:00,79.9,74.3,30.26,NE,41,0.0,0.0,83,0.00,,,0.00,WUHU216DAVISVP2,2013-07-17 03:21:00,
2013-07-16 22:26:00,80.1,74.5,30.26,NE,54,0.0,0.0,83,0.00,,,0.00,WUHU216DAVISVP2,2013-07-17 03:26:00,
2013-07-16 22:31:00,80.0,74.1,30.26,NE,54,0.0,0.0,82,0.00,,,0.00,WUHU216DAVISVP2,2013-07-17 03:31:00,
2013-07-16 22:36:00,79.8,73.9,30.26,NE,54,0.0,0.0,82,0.00,,,0.00,WUHU216DAVISVP2,2013-07-17 03:36:00,
2013-07-16 22:41:00,80.1,73.8,30.26,East,91,0.0,0.0,81,0.00,,,0.00,WUHU216DAVISVP2,2013-07-17 03:41:00,
2013-07-16 22:46:00,80.4,73.7,30.26,ENE,69,0.0,0.0,80,0.00,,,0.00,WUHU216DAVISVP2,2013-07-17 03:46:00,
2013-07-16 22:51:00,80.6,73.9,30.26,ENE,75,0.0,0.0,80,0.00,,,0.00,WUHU216DAVISVP2,2013-07-17 03:51:00,
2013-07-16 22:56:00,80.5,74.2,30.26,ENE,75,0.0,0.0,81,0.00,,,0.00,WUHU216DAVISVP2,2013-07-17 03:56:00,
2013-07-16 23:01:00,80.3,74.0,30.26,ENE,72,0.0,0.0,81,0.00,,,0.00,WUHU216DAVISVP2,2013-07-17 04:01:00,
2013-07-16 23:06:00,80.1,73.8,30.26,ENE,69,0.0,0.0,81,0.00,,,0.00,WUHU216DAVISVP2,2013-07-17 04:06:00,
2013-07-16 23:11:00,80.0,73.7,30.26,ENE,69,0.0,0.0,81,0.00,,,0.00,WUHU216DAVISVP2,2013-07-17 04:11:00,
2013-07-16 23:16:00,80.0,73.6,30.26,ENE,69,0.0,0.0,81,0.00,,,0.00,WUHU216DAVISVP2,2013-07-17 04:16:00,
2013-07-16 23:21:00,79.9,74.3,30.27,ENE,69,0.0,0.0,83,0.00,,,0.00,WUHU216DAVISVP2,2013-07-17 04:21:00,
2013-07-16 23:26:00,79.5,74.3,30.27,ENE,69,0.0,0.0,84,0.00,,,0.00,WUHU216DAVISVP2,2013-07-17 04:26:00,
2013-07-16 23:31:00,78.9,73.7,30.27,ENE,69,0.0,0.0,84,0.00,,,0.00,WUHU216DAVISVP2,2013-07-17 04:31:00,
2013-07-16 23:36:00,78.6,74.1,30.27,ENE,69,0.0,0.0,86,0.00,,,0.00,WUHU216DAVISVP2,2013-07-17 04:36:00,
2013-07-16 23:41:00,78.2,73.7,30.27,ENE,69,0.0,0.0,86,0.00,,,0.00,WUHU216DAVISVP2,2013-07-17 04:41:00,
2013-07-16 23:46:00,78.0,73.8,30.27,ENE,69,0.0,0.0,87,0.00,,,0.00,WUHU216DAVISVP2,2013-07-17 04:46:00,
2013-07-16 23:51:00,77.9,73.7,30.26,ENE,69,0.0,0.0,87,0.00,,,0.00,WUHU216DAVISVP2,2013-07-17 04:51:00,
2013-07-16 23:55:00,77.8,73.6,30.26,ENE,69,0.0,0.0,87,0.00,,,0.00,WUHU216DAVISVP2,2013-07-17 04:55:00,
2013-07-16 23:59:00,77.9,73.7,30.26,ENE,69,0.0,0.0,87,0.00,,,0.00,WUHU216DAVISVP2,2013-07-17 04:59:00,